Wind_Speed
17 13 14 14 14 14 15 15 16 15 14 15 14 13 12 13 13 13 12 14 16 17 18 19 20 22 24 25 27 26 25 23 22 22 23 26 25 25 26 25 27 24 22 21 21
19 14 15 14 13 14 14 15 16 16 16 15 15 14 14 14 13 12 13 16 17 16 17 18 21 22 23 24 26 26 25 24 23 24 22 23 22 25 30 27 28 26 24 23 21
21 18 17 15 15 14 14 15 16 16 17 16 16 16 15 15 13 13 14 16 18 18 18 19 20 21 20 21 25 26 25 25 24 23 23 24 20 22 27 28 31 30 31 29 27
25 22 20 18 17 14 15 16 17 18 17 16 17 17 17 15 15 15 16 18 18 19 20 20 20 22 20 21 23 23 24 25 26 26 25 24 24 25 27 28 30 30 29 29 30
28 26 23 21 21 20 20 19 19 18 18 18 18 18 18 18 16 18 18 19 20 20 20 20 21 22 20 21 22 22 23 25 25 26 28 28 26 27 29 30 32 32 31 32 32
28 28 28 25 24 23 22 22 20 20 20 19 19 20 20 20 19 21 21 20 20 21 21 20 21 22 23 23 23 24 25 27 28 28 29 29 30 31 31 35 36 37 35 34 34
30 30 30 28 28 27 27 25 24 22 22 21 22 22 22 23 24 23 23 23 23 23 22 21 21 22 25 24 25 25 26 27 30 30 32 29 30 32 35 38 40 41 36 36 37
31 33 32 31 30 31 31 29 28 26 24 25 23 23 24 25 25 26 26 26 25 24 22 21 21 23 24 25 25 25 27 29 32 33 33 33 30 35 37 38 41 43 42 42 42
34 35 35 35 34 33 35 31 30 29 28 27 25 24 25 26 26 28 28 26 26 25 21 21 22 24 24 25 27 28 29 31 34 34 34 33 30 35 38 38 41 43 43 44 44
35 37 37 37 37 37 37 35 32 31 30 29 27 25 25 26 27 29 29 28 25 23 22 21 24 23 24 27 28 29 31 33 35 35 38 38 37 37 38 40 43 44 45 45 46
37 35 36 38 41 39 40 38 35 34 33 31 30 28 26 27 28 29 27 25 22 23 22 24 23 23 26 28 28 30 33 34 36 37 38 40 41 39 39 41 44 47 48 48 49
37 35 35 36 38 39 40 38 38 37 35 34 32 30 28 29 28 27 24 22 23 24 24 24 26 28 29 30 30 32 34 35 36 38 40 42 44 44 43 44 46 48 49 50 50
36 33 33 33 34 38 39 38 38 39 39 36 34 32 29 29 27 23 22 21 23 23 23 25 28 29 30 32 32 35 36 37 38 39 41 44 44 45 44 45 48 51 51 49 48
35 33 32 31 33 34 36 37 37 38 40 37 35 32 29 28 24 22 21 23 23 23 26 27 29 31 32 35 35 37 39 40 41 42 44 45 43 43 46 49 50 49 48 46 44
35 34 33 31 32 32 33 34 36 36 40 34 31 29 26 25 23 22 23 23 24 27 28 29 31 32 36 38 38 39 39 40 41 45 44 42 43 44 44 48 49 46 42 45 47
36 35 35 32 32 31 32 33 34 35 36 30 24 22 24 25 24 23 23 24 25 27 27 29 32 36 39 39 39 40 39 41 44 44 41 41 42 42 46 48 47 47 47 51 53
40 38 36 34 32 33 33 33 35 36 29 29 27 26 28 29 28 26 26 27 28 27 28 31 35 38 39 40 40 39 39 40 44 43 40 41 43 43 47 48 48 48 50 55 60
45 39 39 39 38 34 35 36 39 32 29 29 28 28 28 30 29 29 30 30 29 30 32 34 37 39 38 39 40 38 36 37 42 39 39 40 44 42 47 50 53 52 56 61 67
48 44 43 42 42 40 40 44 38 34 33 30 32 33 33 33 32 33 34 34 32 34 35 38 40 40 39 39 38 35 34 35 37 38 40 43 45 46 50 54 54 57 61 67 74
51 49 46 46 46 47 47 46 41 37 35 34 34 35 34 34 35 34 35 36 35 36 38 40 41 39 37 38 35 31 32 34 36 38 40 44 47 46 53 55 59 60 66 73 62
58 54 51 49 49 52 52 48 41 40 40 39 38 37 37 37 37 37 38 37 39 39 41 42 43 37 38 36 30 28 30 32 35 36 38 45 51 50 54 59 60 65 71 61 53
62 59 53 50 50 50 45 45 44 42 44 45 42 39 40 39 40 40 40 40 40 42 42 43 41 36 35 33 28 27 29 32 35 37 38 43 49 51 56 60 63 69 60 51 49
64 60 56 53 52 47 45 48 45 40 42 47 44 41 39 39 41 43 45 43 43 43 44 41 38 35 34 31 29 28 30 32 34 36 41 49 50 52 53 58 65 59 48 45 46
60 60 54 53 47 44 42 45 48 43 42 44 41 42 43 42 44 46 47 46 44 44 43 41 37 33 34 33 31 29 31 33 34 39 44 45 50 47 52 59 59 49 46 46 45
66 64 57 55 47 40 41 44 50 50 47 46 46 45 45 46 46 46 45 45 44 42 41 41 36 32 34 33 32 32 31 33 35 41 46 42 46 48 53 56 53 44 42 44 46
71 74 67 57 52 52 52 47 47 49 50 49 50 50 49 49 47 44 43 46 46 45 43 39 35 33 36 34 35 35 31 33 38 44 43 46 44 49 54 54 47 42 42 46 47
73 69 68 70 72 71 62 56 54 52 51 52 52 53 52 49 48 46 47 49 48 44 40 39 35 35 38 36 39 38 33 34 39 43 42 44 45 50 52 50 43 41 41 42 44
Wind_Direction
230 233 244 254 257 251 251 244 237 234 235 237 238 243 250 259 267 274 277 292 293 298 303 307 314 323 329 331 332 332 333 329 331 337 336 333 331 331 331 333 328 331 330 329 327
230 235 241 247 248 250 249 244 239 235 235 240 244 248 255 264 264 267 290 295 291 291 299 307 316 323 328 331 328 330 330 332 332 333 334 328 328 326 327 329 324 326 325 325 320
233 236 242 245 246 246 245 246 245 241 238 239 247 253 258 263 263 272 285 292 294 296 302 310 315 322 326 327 324 326 326 330 330 329 326 320 322 321 320 323 322 325 324 322 320
237 238 239 241 246 242 246 246 246 245 246 244 249 257 262 256 260 272 285 292 295 300 305 308 311 323 321 321 321 323 321 325 327 328 323 319 319 314 315 312 315 316 316 315 313
240 240 241 239 242 244 250 254 253 250 252 252 254 257 254 256 259 273 281 289 297 300 306 309 311 316 313 316 317 317 317 322 323 324 321 320 317 312 309 306 308 309 311 310 308
247 245 247 246 242 248 252 255 257 258 256 253 253 256 252 253 259 268 278 288 295 299 302 304 310 314 310 312 311 316 317 317 318 319 321 320 316 311 305 305 306 307 309 308 304
248 248 247 246 247 246 250 256 259 261 261 257 254 254 254 254 261 270 279 286 291 298 303 302 310 313 311 308 306 312 314 315 313 315 317 317 313 306 305 307 308 308 305 301 296
249 249 249 247 248 250 252 253 257 260 262 262 257 257 257 258 260 270 278 284 288 298 300 301 304 309 307 307 305 305 310 312 310 311 315 314 308 305 304 306 307 304 302 300 296
254 251 250 249 248 249 254 253 255 259 260 262 260 256 256 260 264 268 277 283 288 296 296 301 302 306 305 307 306 304 305 305 304 308 311 309 305 301 303 302 301 301 299 294 292
261 255 252 252 251 250 251 253 253 256 260 262 262 261 261 262 267 272 279 284 287 291 294 297 299 301 305 307 305 303 302 302 301 305 306 309 308 304 303 303 300 299 297 295 293
262 259 255 251 251 251 250 252 253 254 257 259 261 262 264 267 271 274 281 283 283 288 293 296 295 298 306 308 303 301 302 303 302 304 306 307 306 306 303 302 301 299 296 296 294
264 263 258 253 250 250 251 252 253 254 256 258 259 262 264 268 274 276 276 279 284 287 291 291 295 299 303 305 301 301 301 300 300 302 304 306 309 307 306 303 301 298 296 295 293
266 265 261 256 252 249 249 251 251 252 255 257 260 263 266 269 272 271 272 277 281 286 289 295 299 298 301 304 300 300 300 299 301 304 306 309 306 305 305 302 301 298 298 299 298
267 265 261 259 254 250 249 250 253 254 257 258 260 262 266 268 265 263 268 276 279 284 294 299 301 299 300 302 299 299 301 302 303 305 307 307 308 308 305 304 301 303 305 305 298
261 264 262 259 258 254 252 253 254 256 260 260 261 261 258 253 251 259 268 272 279 289 296 300 303 300 301 301 298 299 302 305 306 305 305 307 307 306 305 304 306 307 307 304 300
257 259 258 257 258 257 255 253 254 254 255 257 257 252 247 247 251 260 266 271 283 293 298 304 304 303 302 301 298 300 304 306 306 304 305 308 308 309 308 307 306 305 307 304 306
251 255 254 255 254 254 255 253 252 251 254 254 252 250 249 253 254 259 265 274 287 296 303 307 305 303 303 300 299 299 304 308 305 306 309 312 309 312 309 308 306 307 304 307 312
247 251 255 255 254 254 253 252 251 255 252 251 251 252 252 254 258 263 269 278 289 298 303 306 303 305 303 299 298 301 306 308 303 307 310 311 310 314 311 307 309 310 311 312 312
248 249 254 254 255 249 250 249 253 253 251 250 254 254 256 259 262 267 271 278 289 296 300 302 302 304 300 296 297 301 306 304 301 305 311 316 315 318 315 311 313 313 315 313 313
245 247 251 255 252 253 250 251 251 253 252 252 251 256 259 262 265 267 271 280 287 292 296 297 300 299 295 295 295 299 305 305 305 309 316 321 323 321 312 314 315 317 316 317 321
247 247 250 255 253 254 255 254 250 250 252 251 253 257 260 264 265 270 275 281 285 290 292 296 298 294 292 292 291 299 302 302 306 310 315 326 326 320 311 314 318 318 321 324 325
248 251 250 253 255 252 255 256 256 250 249 253 256 258 261 262 266 269 275 279 284 285 289 292 290 287 289 286 289 298 300 303 313 312 316 312 331 312 315 317 319 323 325 327 334
247 250 249 250 250 252 257 257 253 251 249 252 256 260 261 264 268 271 274 277 280 282 286 287 284 284 282 280 288 295 300 309 313 312 316 316 317 313 314 319 322 324 323 329 334
248 250 249 245 247 251 255 253 253 254 250 251 257 262 264 268 271 273 275 275 276 278 281 278 280 279 275 281 288 294 303 312 309 310 309 319 310 312 315 320 324 322 322 327 333
251 253 250 247 244 251 252 251 247 252 253 254 257 263 268 269 271 272 273 269 269 274 273 273 276 267 269 277 285 292 305 311 310 310 312 312 308 310 317 323 324 320 320 327 328
241 242 247 249 248 247 252 248 250 252 256 255 258 263 265 269 271 268 261 260 266 271 269 270 265 262 268 276 282 291 307 308 310 317 316 305 309 313 319 324 320 317 322 325 325
240 238 241 245 251 254 256 257 257 258 258 257 258 263 266 267 265 261 258 258 266 267 263 262 259 261 267 274 280 289 300 304 313 322 311 303 309 315 321 322 318 317 324 325 326
Height
5821 5819 5821 5824 5824 5823 5824 5824 5825 5826 5827 5828 5828 5828 5829 5829 5830 5830 5830 5831 5830 5828 5826 5825 5823 5822 5819 5816 5813 5810 5808 5804 5802 5801 5800 5799 5797 5794 5791 5789 5785 5783 5781 5778 5775
5817 5817 5818 5820 5820 5821 5821 5822 5823 5823 5824 5825 5826 5826 5826 5827 5827 5827 5828 5827 5826 5824 5823 5822 5821 5819 5817 5814 5811 5808 5806 5802 5800 5799 5796 5794 5793 5791 5789 5786 5782 5780 5778 5775 5773
5812 5813 5815 5817 5817 5817 5818 5820 5821 5821 5821 5821 5823 5824 5823 5824 5825 5825 5825 5824 5823 5822 5821 5819 5817 5816 5813 5811 5808 5806 5803 5800 5798 5796 5794 5792 5789 5786 5784 5782 5779 5777 5773 5770 5767
5808 5810 5811 5813 5814 5814 5816 5816 5817 5818 5818 5817 5819 5820 5820 5821 5823 5822 5822 5822 5821 5820 5819 5816 5814 5812 5810 5808 5805 5803 5800 5797 5795 5794 5791 5789 5787 5784 5780 5777 5774 5772 5769 5766 5763
5803 5805 5806 5808 5809 5810 5811 5813 5813 5813 5814 5814 5815 5815 5817 5818 5819 5819 5818 5818 5817 5816 5815 5813 5811 5808 5806 5804 5801 5798 5796 5794 5792 5790 5788 5786 5784 5780 5776 5772 5769 5767 5766 5762 5759
5799 5801 5803 5804 5804 5806 5808 5809 5809 5809 5810 5810 5811 5811 5813 5814 5814 5814 5814 5814 5813 5812 5810 5808 5807 5805 5803 5800 5799 5796 5793 5791 5788 5786 5784 5783 5779 5775 5771 5767 5764 5762 5760 5757 5752
5792 5795 5797 5797 5799 5800 5803 5804 5805 5805 5806 5806 5806 5807 5808 5810 5810 5810 5810 5809 5808 5807 5806 5805 5803 5802 5799 5797 5795 5791 5789 5786 5784 5781 5779 5779 5775 5770 5766 5763 5759 5756 5754 5749 5743
5785 5788 5790 5791 5792 5794 5797 5798 5800 5801 5801 5802 5801 5802 5803 5804 5804 5805 5804 5804 5803 5802 5801 5801 5799 5796 5794 5792 5790 5787 5784 5782 5778 5776 5774 5772 5770 5764 5760 5757 5753 5749 5745 5741 5736
5778 5780 5781 5783 5785 5787 5790 5791 5793 5795 5795 5796 5797 5797 5798 5799 5799 5799 5799 5798 5798 5797 5796 5795 5794 5792 5790 5787 5786 5783 5779 5776 5772 5770 5768 5765 5764 5758 5754 5751 5746 5741 5737 5731 5726
5770 5771 5773 5775 5777 5779 5782 5784 5785 5788 5789 5790 5791 5793 5793 5794 5793 5793 5793 5793 5792 5792 5791 5790 5788 5786 5785 5782 5780 5777 5773 5770 5766 5765 5761 5759 5755 5751 5747 5742 5737 5733 5727 5722 5717
5761 5762 5764 5765 5769 5771 5774 5776 5779 5781 5782 5783 5785 5785 5787 5787 5787 5787 5787 5787 5786 5786 5785 5784 5783 5780 5778 5776 5773 5771 5768 5764 5760 5757 5755 5751 5747 5744 5739 5734 5729 5724 5718 5714 5709
5753 5754 5755 5756 5758 5762 5765 5767 5770 5773 5774 5775 5777 5779 5780 5780 5781 5781 5781 5782 5781 5780 5779 5779 5777 5775 5772 5769 5767 5764 5761 5758 5754 5750 5748 5743 5739 5734 5731 5726 5720 5713 5709 5704 5699
5745 5745 5746 5748 5751 5753 5756 5759 5760 5762 5765 5768 5769 5772 5773 5774 5773 5774 5776 5775 5774 5774 5773 5772 5771 5768 5765 5763 5761 5758 5754 5751 5748 5744 5740 5736 5731 5727 5723 5716 5711 5703 5698 5693 5689
5738 5738 5740 5741 5744 5745 5747 5750 5753 5754 5755 5761 5762 5764 5765 5765 5767 5767 5768 5770 5768 5767 5766 5765 5763 5761 5758 5756 5754 5751 5747 5744 5741 5737 5733 5728 5723 5719 5713 5706 5698 5694 5689 5683 5678
5729 5731 5734 5735 5736 5738 5740 5742 5745 5747 5745 5752 5755 5756 5757 5759 5760 5761 5762 5762 5761 5761 5761 5759 5756 5754 5752 5750 5746 5743 5739 5736 5732 5728 5723 5719 5715 5710 5704 5696 5691 5685 5679 5674 5668
5720 5723 5726 5727 5729 5731 5732 5734 5737 5739 5737 5744 5746 5748 5750 5751 5753 5754 5755 5755 5754 5753 5752 5750 5749 5747 5745 5741 5737 5734 5731 5728 5724 5720 5713 5710 5705 5701 5694 5688 5681 5675 5672 5665 5659
5710 5714 5717 5719 5721 5723 5725 5727 5728 5727 5736 5738 5739 5741 5742 5744 5745 5747 5748 5748 5748 5747 5745 5743 5741 5738 5736 5732 5728 5725 5722 5718 5715 5710 5704 5699 5694 5691 5681 5676 5671 5668 5663 5656 5649
5699 5705 5708 5711 5712 5714 5716 5718 5716 5724 5728 5731 5732 5733 5734 5736 5738 5739 5740 5740 5740 5738 5736 5735 5732 5729 5727 5724 5721 5717 5714 5711 5705 5702 5697 5691 5686 5682 5674 5665 5661 5656 5650 5644 5634
5691 5694 5698 5700 5702 5705 5707 5704 5711 5716 5719 5723 5724 5725 5726 5728 5730 5731 5732 5731 5731 5730 5729 5726 5723 5720 5717 5714 5713 5710 5707 5704 5699 5695 5688 5684 5677 5670 5662 5655 5651 5646 5637 5629 5619
5678 5683 5686 5688 5691 5694 5695 5696 5703 5709 5711 5714 5716 5717 5719 5721 5722 5723 5722 5723 5722 5721 5719 5717 5714 5712 5709 5707 5704 5702 5700 5696 5691 5685 5680 5674 5668 5663 5653 5645 5640 5633 5625 5616 5603
5664 5668 5675 5677 5680 5682 5681 5688 5695 5700 5704 5704 5706 5709 5710 5711 5712 5713 5713 5714 5712 5712 5710 5708 5706 5705 5701 5699 5695 5694 5692 5689 5684 5679 5672 5664 5658 5652 5641 5635 5631 5621 5610 5598 5591
5651 5654 5663 5666 5668 5669 5673 5681 5687 5690 5693 5694 5696 5700 5701 5702 5703 5703 5704 5703 5703 5702 5700 5698 5696 5695 5694 5690 5688 5685 5683 5680 5674 5670 5663 5657 5654 5642 5631 5622 5617 5607 5597 5590 5580
5637 5642 5647 5654 5653 5660 5665 5670 5674 5678 5682 5683 5685 5689 5691 5692 5693 5694 5693 5693 5693 5692 5690 5689 5686 5685 5685 5683 5680 5678 5675 5671 5665 5660 5656 5647 5642 5632 5623 5615 5604 5596 5588 5581 5574
5621 5626 5634 5638 5645 5651 5655 5661 5666 5667 5669 5672 5676 5678 5680 5681 5682 5683 5683 5683 5682 5681 5680 5678 5677 5677 5674 5672 5671 5670 5667 5663 5656 5651 5646 5642 5630 5627 5615 5608 5599 5590 5581 5574 5566
5606 5613 5623 5628 5635 5642 5644 5649 5652 5654 5659 5662 5664 5668 5670 5669 5670 5671 5672 5672 5671 5670 5669 5668 5669 5667 5666 5664 5662 5661 5658 5653 5647 5642 5634 5632 5622 5615 5608 5600 5590 5584 5576 5567 5560
5592 5600 5605 5617 5622 5626 5629 5638 5640 5644 5648 5652 5654 5655 5656 5658 5658 5659 5660 5659 5659 5659 5658 5659 5659 5659 5656 5654 5653 5652 5650 5643 5638 5632 5625 5617 5613 5605 5598 5589 5582 5576 5569 5561 5555
5577 5586 5595 5597 5605 5610 5618 5628 5632 5632 5635 5639 5641 5641 5644 5645 5644 5646 5646 5647 5648 5649 5648 5648 5649 5650 5647 5645 5643 5645 5644 5636 5630 5623 5616 5609 5602 5595 5588 5580 5574 5568 5560 5554 5549